This demonstration page uses our WeatherBlox Daily Observations layout. Learn more.

Left ArrowRight Arrow

Hourly Observations for August 22, 2018

Temp ( °F °C ) Dew Point ( °F °C ) Humidity (%) Winds ( mph kmh ) Pressure ( in mb ) Visibility ( mi km ) Precip ( " mm )
12:53 am 00:53 Mostly Cloudy 71 21.7 63 17.2 76 76 NNE 9 15 30.19 1022 10 16 0.00 0.00
1:53 am 01:53 Cloudy 70 21.1 64 17.8 82 82 NNE 8 13 30.19 1022 10 16 0.00 0.00
2:53 am 02:53 Cloudy 70 21.1 64 17.8 82 82 NNE 9 15 30.19 1022 10 16 0.00 0.00
3:53 am 03:53 Cloudy 70 21.1 64 17.8 82 82 NNE 9 15 30.20 1023 10 16 0.00 0.00
4:53 am 04:53 Cloudy 69 20.6 64 17.8 84 84 NE 7 11 30.21 1023 10 16 0.00 0.00
5:53 am 05:53 Cloudy with Light Rain 68 20 65 18.3 90 90 ENE 6 9 30.19 1022 8 13 0.01 0.25
6:53 am 06:53 Cloudy 67 19.4 65 18.3 93 93 E 6 9 30.20 1023 10 16 0.00 0.03
7:53 am 07:53 Cloudy 68 20 65 18.3 90 90 ENE 5 7 30.23 1024 7 11 0.00 0.00
8:53 am 08:53 Cloudy 68 20 65 18.3 90 90 NNE 3 6 30.24 1024 8 13 0.00 0.03
9:53 am 09:53 Cloudy 68 20 65 18.3 90 90 ENE 8 13 30.25 1024 8 13 0.00 0.00
10:53 am 10:53 Cloudy 69 20.6 65 18.3 87 87 ENE 10 17 30.25 1024 8 13 0.00 0.00
11:53 am 11:53 Cloudy 70 21.1 65 18.3 84 84 SE 7 11 30.26 1025 7 11 0.00 0.00
12:53 pm 12:53 Cloudy with Light Rain 69 20.6 66 18.9 90 90 SSW 3 6 30.27 1025 7 11 0.00 0.03
1:43 pm 13:43 Cloudy with Light Rain 70 21.1 67 19.4 90 90 SE 3 6 30.21 1023 5 8 0.00 0.03
1:53 pm 13:53 Cloudy with Mist and Fog 70 21.1 67 19.4 90 90 Calm 30.23 1024 5 8 0.00 0.03
2:02 pm 14:02 Cloudy with Mist and Fog 71 21.7 67 19.4 87 87 E 5 7 30.21 1023 5 8 0.00 0.00
2:39 pm 14:39 Cloudy with Haze 72 22.2 67 19.4 84 84 ENE 3 6 30.21 1023 6 10 0.00 0.00
2:53 pm 14:53 Cloudy with Haze 72 22.2 67 19.4 84 84 Calm 30.21 1023 6 10 0.00 0.00
3:05 pm 15:05 Cloudy with Haze 72 22.2 67 19.4 84 84 Calm 30.21 1023 6 10 0.00 0.00
3:15 pm 15:15 Cloudy with Haze 72 22.2 67 19.4 84 84 Calm 30.21 1023 6 10 0.00 0.00
3:32 pm 15:32 Cloudy with Haze 72 22.2 67 19.4 84 84 Calm 30.21 1023 6 10 0.00 0.00
3:53 pm 15:53 Cloudy with Haze 73 22.8 67 19.4 81 81 Calm 30.20 1023 6 10 0.00 0.00
4:53 pm 16:53 Cloudy with Haze 73 22.8 67 19.4 81 81 Calm 30.18 1022 6 10 0.00 0.00
5:00 pm 17:00 Cloudy 74 23.3 67 19.4 79 79 Calm 30.18 1022 7 11 0.00 0.00
5:33 pm 17:33 Cloudy with Light Rain 74 23.3 68 20 82 82 NE 6 9 30.15 1021 6 10 0.00 0.03
5:53 pm 17:53 Cloudy with Haze 73 22.8 67 19.4 81 81 E 7 11 30.15 1021 6 10 0.00 0.03
6:34 pm 18:34 Mostly Cloudy 73 22.8 67 19.4 81 81 SE 7 11 30.15 1021 8 13 0.00 0.00
6:53 pm 18:53 Mostly Cloudy 73 22.8 67 19.4 81 81 SE 6 9 30.14 1021 8 13 0.00 0.00
7:53 pm 19:53 Mostly Cloudy 71 21.7 67 19.4 87 87 SE 7 11 30.13 1020 8 13 0.00 0.00
8:53 pm 20:53 Mostly Cloudy 70 21.1 68 20 93 93 SE 5 7 30.12 1020 9 14 0.00 0.00
9:53 pm 21:53 Partly Cloudy 70 21.1 68 20 93 93 ESE 6 9 30.12 1020 9 14 0.00 0.00
10:53 pm 22:53 Mostly Clear 69 20.6 68 20 96 96 SE 6 9 30.12 1020 8 13 0.00 0.00
11:53 pm 23:53 Mostly Clear 69 20.6 68 20 96 96 SE 7 11 30.11 1020 8 13 0.00 0.00

Powered by Vaisala Xweather